Regional Weather Roundup
Issued by NWS Northern Indiana

Home | Current Version | Previous Version | Graphics & Text | Print | Product List | Glossary On
Versions: 1 2 3 4 5 6 7 8 9 10 11 12 13 14 15 16 17 18 19 20 21 22 23 24 25 26 27 28 29 30 31 32 33 34 35 36 37 38 39 40 41 42 43 44 45 46 47 48 49 50
000
ASUS43 KIWX 260100
RWRIWX

KIWX WEATHER ROUNDUP
NATIONAL WEATHER SERVICE NORTHERN INDIANA
800 PM EST SUN JAN 25 2015

NOTE: "FAIR" INDICATES FEW OR NO CLOUDS BELOW 12,000 FEET WITH NO
SIGNIFICANT WEATHER AND/OR OBSTRUCTIONS TO VISIBILITY.

* THESE STATIONS ARE NOT UNDER NWS QUALITY CONTROL. THEY ALSO MAY NOT
  REPORT WEATHER SUCH AS PRECIPITATION OR FOG.

INZ001>027-260200-
NORTHERN INDIANA

CITY           SKY/WX    TMP DP  RH WIND       PRES   REMARKS
SOUTH BEND     CLOUDY    24  17  74 NE14      29.93R WCI  12
GOSHEN         LGT SNOW  24  19  81 NE16G22   29.90R WCI  11
ANGOLA*        CLOUDY    21  18  86 E9        29.88S WCI  11
FORT WAYNE     LGT SNOW  20  16  84 NE17G32   29.87R FOG     WCI   5

$$
INZ028>050-260200-
CENTRAL INDIANA

CITY           SKY/WX    TMP DP  RH WIND       PRES   REMARKS
LAFAYETTE      CLOUDY    26  22  84 NE18G28   29.86R WCI  13
KOKOMO*        CLOUDY    23  18  80 NE17      29.84R WCI   9
MUNCIE*        LGT SNOW  22  18  85 NE22      29.80R FOG     WCI   6
INDIANAPOLIS   LGT SNOW  25  23  92 N20       29.76R FOG     WCI  11

$$
MIZ043>046-050>051-056>058-064>065-071>073-077>080-260200-
SOUTHWEST LOWER MICHIGAN

CITY           SKY/WX    TMP DP  RH WIND       PRES   REMARKS
BATTLE CREEK   CLOUDY    24  10  55 NE15G21   29.94R WCI  11
BENTON HARBOR  CLOUDY    23  14  68 NE10G17   29.96R WCI  12
COLDWATER*     MOCLDY    23  14  68 NE13      29.91R WCI  11
HILLSDALE*     CLOUDY    22   9  57 E12       29.89R WCI  11
HOLLAND        PTCLDY    21  10  62 NE7       29.99R WCI  12
GRAND RAPIDS   PTCLDY    19  10  68 NE17      29.99R WCI   4
KALAMAZOO      MOCLDY    22  13  68 NE9       29.95R WCI  12
STURGIS*       FLURRIES  21  19  93 NE9       29.90R WCI  11
THREE RIVERS*  CLOUDY    24  14  66 NE12G18   29.93R WCI  13

$$
OHZ001>008-015>018-024>025-260200-
NORTHWEST OHIO

CITY           SKY/WX    TMP DP  RH WIND       PRES   REMARKS
DEFIANCE       LGT SNOW  20  15  81 NE14G20   29.91R WCI   7
FINDLAY        LGT SNOW  21  17  84 NE21G28   29.85S FOG     WCI   5
TOLEDO EXPRESS FLURRIES  18  12  77 NE14      29.92R WCI   4
TOLEDO METCALF LGT SNOW  18  10  71 NE14G25   29.94R WCI   4
LIMA           LGT SNOW  22  17  81 NE17G29   29.82R VSB 3/4 WCI   8

$$
AND FOR LAKE MICHIGAN COASTAL AND OPEN LAKE BUOY OBSERVATIONS

STATION/POSITION TEMP    WIND        PRES    VSBY  WAVE
                 AIR SEA DIR/SP/G                  HT/PER
                 (F)     (DEG/KT/KT) (MB)    (MI)  (FT/S)
CALUMET HARBOR    27      10/ 16/ 21   N/A
MICHIGAN CITY     25      20/ 17/ 20   N/A
SAINT JOSEPH      25      10/  5/ 14 1015.2R

$$
&&



USA.gov is the U.S. government's official web portal to all federal, state and local government web resources and services.